#timestamp,LO_Frequency,Hit,StdDev 
1619607895.4,286046977.4,P
1619607915.2,286046978.6,P
1619607935.1,286046976.2,P
1619607936.0,286046976.2,Y
1619607955.8,286047001.0,P
1619607975.6,286046999.1,N
1619607995.5,286046999.6,N
1619608015.3,286046997.6,N
1619608035.2,286046995.1,N
1619608055.9,286046997.5,N
1619608075.7,286046995.7,N
1619608095.6,286046996.3,N
1619608115.4,286046994.5,N
1619608135.2,286046992.3,N
1619608155.1,286046992.0,N
1619608156.0,286046992.0,N
1619608175.8,286046990.5,N
1619608195.7,286046993.0,N
1619608215.5,286046990.6,N
1619608235.3,286046991.2,N
1619608255.2,286046989.7,N
1619608275.9,286046987.4,N
1619608295.7,286046987.7,N
1619608315.6,286046987.5,N
1619608335.4,286046986.0,N
1619608355.2,286046986.1,N
1619608375.1,286046986.4,N
1619608376.0,286046986.4,N
1619608395.8,286046983.7,Y
1619608415.7,286046992.1,P
1619608435.5,286046992.7,P
1619608455.3,286046990.5,P
1619608475.2,286046990.3,Y
1619608495.0,286046998.7,P
1619608495.9,286046998.7,N
1619608515.8,286046997.3,N
1619608535.6,286046996.7,N
1619608555.4,286046997.2,N
1619608575.3,286046995.1,N
1619608595.1,286046994.0,N
1619608596.0,286046994.0,N
1619608615.8,286046993.7,N
1619608635.7,286046994.2,N
1619608655.5,286046993.6,N
1619608675.3,286046994.4,N
1619608695.2,286046992.0,Y
1619608715.0,286046996.8,P
1619608715.9,286046996.8,P
1619608735.8,286046997.0,P
1619608755.6,286046997.4,Y
1619608775.4,286046998.2,P
1619608795.3,286046998.9,N
1619608815.1,286046999.1,N
1619608835.9,286046996.5,Y
1619608855.7,286046998.7,P
1619608875.5,286046998.9,P
1619608895.4,286046998.9,P
1619608915.2,286046999.4,N
1619608935.0,286046998.5,Y
1619608935.9,286046998.5,P
1619608955.8,286046998.1,P
1619608975.6,286046998.3,P
1619608995.5,286046996.8,Y
1619609015.3,286046998.2,P
1619609035.1,286046999.5,P
1619609055.9,286046995.0,P
1619609075.7,286046993.4,Y
1619609095.6,286046996.7,P
1619609115.4,286046997.2,P
1619609135.2,286046997.3,P
1619609155.1,286046995.1,Y
1619609156.0,286046995.1,P
1619609175.8,286046999.6,N
1619609195.6,286046999.5,N
1619609215.5,286046997.3,N
1619609235.3,286046995.3,N
1619609255.2,286046997.3,N
1619609275.9,286046994.9,Y
1619609295.7,286046998.4,P
1619609315.6,286046999.1,N
1619609335.4,286046996.7,P
1619609355.2,286046996.6,Y
1619609375.1,286046998.8,P
1619609376.0,286046998.8,N
1619609395.8,286046998.8,N
1619609415.7,286046999.5,N
1619609435.5,286046998.9,N
1619609455.3,286046999.5,N
1619609475.2,286046998.9,N
1619609495.0,286046996.6,Y
1619609495.9,286046996.6,P
1619609515.7,286047000.6,N
1619609535.6,286047001.0,N
1619609555.4,286046998.1,N
1619609575.3,286046998.3,N
1619609595.1,286046997.0,N
1619609596.0,286046997.0,N
1619609615.8,286046998.0,N
1619609635.7,286046996.0,N
1619609655.5,286046994.1,Y
1619609675.4,286046995.8,P
1619609695.2,286046996.0,P
1619609715.0,286046994.1,P
1619609715.9,286046994.1,Y
1619609735.8,286046998.0,P
1619609755.6,286046997.6,N
1619609775.4,286046997.9,N
1619609795.3,286046996.3,Y
1619609815.1,286046997.0,P
1619609835.9,286046997.3,P
1619609855.7,286046997.3,P
1619609875.5,286046995.7,Y
1619609895.4,286046996.5,P
1619609915.2,286046999.2,N
1619609935.1,286046997.3,N
1619609936.0,286046997.3,N
1619609955.8,286046995.6,Y
1619609975.6,286046999.0,P
1619609995.5,286046998.2,N
1619610015.3,286046996.6,P
1619610035.2,286046999.6,N
1619610055.9,286046996.6,Y
1619610075.7,286046999.3,P
1619610095.6,286046999.1,N
1619610115.4,286046996.7,P
1619610135.2,286046997.2,N
1619610155.1,286046995.5,Y
1619610156.0,286046995.5,P
1619610175.8,286046996.8,N
1619610195.7,286046997.9,N
1619610215.5,286046997.0,N
1619610235.3,286046997.9,N
1619610255.2,286046997.5,N
1619610275.0,286046995.1,Y
1619610275.9,286046995.1,P
1619610295.8,286046999.2,N
1619610315.6,286046996.7,N
1619610335.4,286046997.5,N
1619610355.3,286046995.2,Y
1619610375.1,286046997.5,P
1619610395.9,286046995.0,P
1619610415.7,286046994.9,P
1619610435.5,286046995.7,Y
1619610455.4,286047000.0,P
1619610475.2,286047000.4,N
1619610495.1,286047000.8,N
1619610496.0,286047000.8,N
1619610515.8,286047001.1,N
1619610535.6,286046998.6,N
1619610555.5,286046999.2,N
1619610575